Date String (YYYY-MM-DD hh:mm:ss) UTC,Instrument flags,Ambient pressure (hPa),Sample flow (lpm),Bypass flow (lpm),Sample temperature (°C),Ambient temperature (°C),ASC tube jacket temperature (°C),LED temperature (°C),Box temperature (°C),Sample RH (%),Span deviation,Mass concentration (μg/m³),Mass concentration (μg/m³),Mass concentration (μg/m³)
DateTimeUTC,F1_M11,P_M11,Q1_M11,Q2_M11,T1_M11,T2_M11,T3_M11,T4_M11,T5_M11,U1_M11,ZSPAN_M11,X0_M11,X2_M11,X1_M11
2022-05-31 10:00:00,,0823.6,5.01,0.00,24.7,23.7,00.0,33.7,26.7,15.3,0000.0,0004.84,0001.25,0000.71
2022-05-31 10:01:00,,0823.6,4.99,0.00,24.7,23.7,00.0,33.7,26.7,15.1,0000.0,0005.15,0001.29,0000.73
2022-05-31 10:02:00,,0823.6,5.01,0.00,24.7,23.7,00.0,33.7,26.7,15.0,0000.0,0005.29,0001.33,0000.75
2022-05-31 10:03:00,,0823.7,5.00,0.00,24.7,23.7,00.0,33.7,26.7,15.1,0000.0,0005.47,0001.45,0000.77
2022-05-31 10:04:00,,0823.6,5.00,0.00,24.7,23.7,00.0,33.7,26.7,15.2,0000.0,0005.65,0001.48,0000.78
2022-05-31 10:05:00,,0823.7,4.99,0.00,24.7,23.7,00.0,33.7,26.7,15.2,0000.0,0005.63,0001.46,0000.79
2022-05-31 10:06:00,,0823.6,5.00,0.00,24.8,23.7,00.0,33.7,26.7,15.3,0000.0,0006.03,0001.47,0000.80
2022-05-31 10:07:00,,0823.7,5.00,0.00,24.8,23.7,00.0,33.7,26.7,15.4,0000.0,0005.37,0001.44,0000.82
2022-05-31 10:08:00,,0823.8,5.01,0.00,24.8,23.7,00.0,33.7,26.7,15.4,0000.0,0004.89,0001.44,0000.84
2022-05-31 10:09:00,,0823.8,4.99,0.00,24.8,23.7,00.0,33.7,26.7,15.4,0000.0,0004.37,0001.46,0000.85
2022-05-31 10:10:00,,0823.8,5.01,0.00,24.8,23.8,00.0,33.7,26.7,15.4,0000.0,0004.44,0001.52,0000.87
2022-05-31 10:11:00,,0823.9,4.99,0.00,24.8,23.8,00.0,33.7,26.7,15.4,0000.0,0005.36,0001.53,0000.89
2022-05-31 10:12:00,,0823.9,5.01,0.00,24.8,23.8,00.0,33.7,26.7,15.4,0000.0,0005.34,0001.54,0000.90
2022-05-31 10:13:00,,0823.9,5.01,0.00,24.8,23.8,00.0,33.7,26.7,15.4,0000.0,0005.28,0001.57,0000.90
2022-05-31 10:14:00,,0823.9,4.99,0.00,24.8,23.8,00.0,33.7,26.7,15.4,0000.0,0005.16,0001.52,0000.91
2022-05-31 10:15:00,,0823.9,5.00,0.00,24.7,23.7,00.0,33.7,26.7,15.5,0000.0,0005.12,0001.52,0000.92
2022-05-31 10:16:00,,0824.0,4.99,0.00,24.7,23.7,00.0,33.7,26.6,15.5,0000.0,0004.86,0001.51,0000.92
2022-05-31 10:17:00,,0824.0,5.00,0.00,24.7,23.7,00.0,33.7,26.6,15.6,0000.0,0004.46,0001.51,0000.93
2022-05-31 10:18:00,,0824.1,5.01,0.00,24.7,23.6,00.0,33.7,26.6,15.6,0000.0,0004.45,0001.51,0000.94
2022-05-31 10:19:00,,0824.1,4.98,0.00,24.7,23.6,00.0,33.7,26.6,15.7,0000.0,0004.44,0001.50,0000.93
2022-05-31 10:20:00,,0824.0,5.01,0.00,24.7,23.6,00.0,33.6,26.6,15.7,0000.0,0004.11,0001.46,0000.93
2022-05-31 10:21:00,,0824.1,4.99,0.00,24.6,23.5,00.0,33.6,26.5,15.7,0000.0,0003.89,0001.41,0000.92
2022-05-31 10:22:00,,0824.1,5.01,0.00,24.6,23.5,00.0,33.6,26.4,15.8,0000.0,0003.20,0001.43,0000.91
2022-05-31 10:23:00,,0824.0,5.00,0.00,24.6,23.4,00.0,33.6,26.4,15.8,0000.0,0003.40,0001.41,0000.88
2022-05-31 10:24:00,,0824.1,5.01,0.00,24.5,23.4,00.0,33.6,26.4,15.8,0000.0,0003.20,0001.34,0000.87
2022-05-31 10:25:00,,0824.0,4.99,0.00,24.5,23.4,00.0,33.6,26.3,15.8,0000.0,0003.18,0001.35,0000.87
2022-05-31 10:26:00,,0824.1,5.00,0.00,24.5,23.3,00.0,33.6,26.3,15.9,0000.0,0003.94,0001.36,0000.86
2022-05-31 10:27:00,,0824.1,5.01,0.00,24.5,23.3,00.0,33.6,26.3,15.9,0000.0,0005.72,0001.35,0000.84
2022-05-31 10:28:00,,0824.1,4.99,0.00,24.5,23.3,00.0,33.5,26.3,15.8,0000.0,0005.78,0001.33,0000.84
2022-05-31 10:29:00,,0824.1,5.02,0.00,24.5,23.3,00.0,33.5,26.3,15.9,0000.0,0005.75,0001.28,0000.82
2022-05-31 10:30:00,,0824.1,4.99,0.00,24.5,23.3,00.0,33.5,26.3,15.9,0000.0,0006.64,0001.26,0000.81
2022-05-31 10:31:00,,0824.1,5.01,0.00,24.5,23.3,00.0,33.5,26.4,15.8,0000.0,0006.89,0001.34,0000.80
2022-05-31 10:32:00,,0824.1,5.01,0.00,24.5,23.3,00.0,33.5,26.4,15.8,0000.0,0007.73,0001.36,0000.80
2022-05-31 10:33:00,,0824.1,5.00,0.00,24.5,23.3,00.0,33.5,26.4,15.8,0000.0,0007.66,0001.34,0000.79
2022-05-31 10:34:00,,0824.2,4.99,0.00,24.5,23.3,00.0,33.5,26.3,15.9,0000.0,0007.56,0001.37,0000.79
2022-05-31 10:35:00,,0824.2,5.01,0.00,24.5,23.3,00.0,33.5,26.3,16.0,0000.0,0007.62,0001.40,0000.79
2022-05-31 10:36:00,,0824.3,4.99,0.00,24.4,23.3,00.0,33.5,26.3,16.2,0000.0,0007.73,0001.42,0000.78
2022-05-31 10:37:00,,0824.2,5.01,0.00,24.4,23.2,00.0,33.4,26.2,16.4,0000.0,0007.17,0001.39,0000.76
2022-05-31 10:38:00,,0824.3,5.00,0.00,24.4,23.2,00.0,33.4,26.2,16.5,0000.0,0005.45,0001.38,0000.75
2022-05-31 10:39:00,,0824.3,5.01,0.00,24.3,23.2,00.0,33.4,26.2,16.4,0000.0,0005.30,0001.37,0000.74
2022-05-31 10:40:00,,0824.3,5.00,0.00,24.3,23.1,00.0,33.4,26.1,16.5,0000.0,0005.30,0001.38,0000.74
2022-05-31 10:41:00,,0824.3,5.00,0.00,24.3,23.1,00.0,33.4,26.1,16.5,0000.0,0004.43,0001.39,0000.75
2022-05-31 10:42:00,,0824.3,4.99,0.00,24.3,23.1,00.0,33.4,26.1,16.6,0000.0,0004.20,0001.34,0000.74
2022-05-31 10:43:00,,0824.3,5.00,0.00,24.2,23.0,00.0,33.3,26.0,16.6,0000.0,0003.63,0001.33,0000.74
2022-05-31 10:44:00,,0824.3,5.00,0.00,24.2,23.0,00.0,33.3,26.0,16.6,0000.0,0004.37,0001.35,0000.74
2022-05-31 10:45:00,,0824.3,5.00,0.00,24.2,23.0,00.0,33.3,26.0,16.6,0000.0,0005.39,0001.32,0000.74
2022-05-31 10:46:00,,0824.3,5.01,0.00,24.2,23.0,00.0,33.3,26.0,16.7,0000.0,0005.39,0001.31,0000.74
2022-05-31 10:47:00,,0824.3,4.99,0.00,24.1,23.0,00.0,33.3,25.9,16.9,0000.0,0005.21,0001.28,0000.74
2022-05-31 10:48:00,,0824.3,5.02,0.00,24.1,23.0,00.0,33.2,25.9,16.9,0000.0,0005.29,0001.27,0000.74
2022-05-31 10:49:00,,0824.3,4.99,0.00,24.1,22.9,00.0,33.2,25.9,16.9,0000.0,0005.39,0001.26,0000.75
2022-05-31 10:50:00,,0824.3,5.01,0.00,24.1,22.9,00.0,33.2,25.9,16.7,0000.0,0006.02,0001.29,0000.76
2022-05-31 10:51:00,,0824.3,5.00,0.00,24.1,22.9,00.0,33.2,25.9,16.8,0000.0,0006.05,0001.31,0000.76
2022-05-31 10:52:00,,0824.3,4.99,0.00,24.0,22.9,00.0,33.2,25.9,16.7,0000.0,0006.08,0001.30,0000.76
2022-05-31 10:53:00,,0824.3,5.00,0.00,24.0,22.9,00.0,33.2,25.8,16.6,0000.0,0006.01,0001.26,0000.76
2022-05-31 10:54:00,,0824.3,4.99,0.00,24.0,22.8,00.0,33.1,25.7,16.6,0000.0,0005.82,0001.27,0000.76
2022-05-31 10:55:00,,0824.3,5.01,0.00,24.0,22.8,00.0,33.1,25.7,16.6,0000.0,0004.91,0001.25,0000.75
2022-05-31 10:56:00,,0824.3,4.99,0.00,24.0,22.8,00.0,33.1,25.7,16.6,0000.0,0004.69,0001.24,0000.76
2022-05-31 10:57:00,,0824.3,5.01,0.00,23.9,22.8,00.0,33.1,25.7,16.7,0000.0,0004.64,0001.26,0000.76
2022-05-31 10:58:00,,0824.3,4.99,0.00,23.9,22.8,00.0,33.1,25.6,16.6,0000.0,0004.62,0001.26,0000.76
2022-05-31 10:59:00,,0824.3,5.00,0.00,23.9,22.7,00.0,33.0,25.6,16.6,0000.0,0004.55,0001.26,0000.78
